369  
ASUS43 KIND 251309  
RWRIN  
 
WEATHER ROUNDUP FOR INDIANA  
NATIONAL WEATHER SERVICE INDIANAPOLIS IN  
900 AM EDT MON SEP 25 2017  
 
NOTE: "FAIR" INDICATES FEW OR NO CLOUDS BELOW 12,000 FEET WITH NO  
SIGNIFICANT WEATHER AND/OR S TO VISIBILITY
.  
 
* - STATION DOES NOT REPORT WEATHER SUCH AS PRECIPITATION OR FOG.
 
 
+ - STATION NOT QUALITY CONTROLLED BY THE NATIONAL WEATHER SERVICE.  
USE DATA WITH CAUTION...ESPECIALLY DEWPOINT AND RELATIVE  
HUMIDITY OBSERVATIONS.  
 
INZ001>003-010>013-019-020-251400-  
NORTHWEST INDIANA  
 
CITY SKY/WX TMP DP RH WIND PRES REMARKS
 
GARY /AIRPORT/ MOSUNNY 70 57 64 S3 30.04R  
KNOX *+ SUNNY 63 57 82 CALM 30.05S  
LA PORTE + SUNNY 65 59 80 CALM 30.07R  
MICHIGAN CITY+ SUNNY 63 63 100 CALM 30.05S  
MONTICELLO + SUNNY 65 60 83 CALM 30.05R  
RENSSELAER + SUNNY 63 55 77 CALM 30.05S  
VALPARAISO SUNNY 67 60 78 CALM 30.05S  
 

 
 
LMZ046-743>745-251400-  
SOUTHERN LAKE MICHIGAN  
 
STATION/POSITION TIME TEMP WIND PRES WAVE
 
AIR SEA DIR/SP/G HT  
(UTC) (F) (DEG/KT/KT) (MB) (FT)  
BURNS HARBOR 1240 72 170/ 7/ 12 1017.3S  
MICHIGAN CITY 1240 70 130/ 9/ 10 N/A  
5NW MICH CITY 1300 70 72 160/ 8/ 10 N/A 1  
 

 
 
INZ004-005-014>016-021>024-251400-  
NORTH CENTRAL INDIANA  
 
CITY SKY/WX TMP DP RH WIND PRES REMARKS
 
ELKHART SUNNY 64 61 88 CALM 30.06S  
GOSHEN SUNNY 63 60 90 CALM 30.07S FOG  
LOGANSPORT + SUNNY 63 59 88 E3 30.07R  
PERU/GRISSOM SUNNY 66 58 75 SE3 30.05S  
SOUTH BEND SUNNY 66 61 84 E3 30.06S  
WARSAW + SUNNY 63 61 94 E3 30.07S  
 

 
 
INZ006>009-017-018-025>027-251400-  
NORTHEAST INDIANA  
 
CITY SKY/WX TMP DP RH WIND PRES REMARKS
 
AUBURN + MOSUNNY 68 64 88 CALM 30.08S FOG  
FORT WAYNE MOSUNNY 67 60 78 CALM 30.08R  
HUNTINGTON + MOSUNNY 64 60 86 CALM 30.06S  
KENDALLVILLE + MOSUNNY 64 64 100 CALM 30.08S FOG  
 

 
 
INZ028-029-035-036-043>045-051>053-251400-  
WEST CENTRAL INDIANA  
 
CITY SKY/WX TMP DP RH WIND PRES REMARKS
 
GREENCASTLE + MOSUNNY 66 55 68 CALM 30.06S  
LAFAYETTE SUNNY 63 61 93 CALM 30.04S  
TERRE HAUTE MOSUNNY 68 59 73 CALM 30.04S  
 

 
 
INZ030>032-037>040-046>048-054>057-064-065-251400-  
CENTRAL INDIANA  
 
CITY SKY/WX TMP DP RH WIND PRES REMARKS
 
ANDERSON SUNNY 63 59 88 CALM 30.07  
CP ATTERBURY + SUNNY 61 59 94 CALM 30.07S  
COLUMBUS SUNNY 63 59 88 CALM 30.06R  
FRANKFORT + CLOUDY 68 62 79 CALM 30.06F  
GREENWOOD *+ MOSUNNY 71 63 75 CALM 30.07R  
INDIANAPOLIS PTSUNNY 70 58 65 CALM 30.06R  
-EAGLE CREEK MOSUNNY 70 59 68 CALM 30.05S  
KOKOMO + SUNNY 65 60 84 CALM 30.07S  
MARION + SUNNY 64 59 82 CALM 30.08R  
MT COMFORT *+ SUNNY 61 59 94 CALM 30.07R  
SHELBYVILLE SUNNY 68 58 70 CALM 30.05S  
ZIONSVILLE + MOSUNNY 65 62 89 CALM 30.07S  
 

 
 
INZ033-034-041-042-049-050-058-059-251400-  
EAST CENTRAL INDIANA  
 
CITY SKY/WX TMP DP RH WIND PRES REMARKS
 
MUNCIE SUNNY 69 59 70 CALM 30.07S  
RICHMOND + SUNNY 68 59 73 CALM 30.09S HAZE  
 

 
 
INZ060-061-067>069-081>083-085>088-251400-  
SOUTHWEST INDIANA  
 
CITY SKY/WX TMP DP RH WIND PRES REMARKS
 
EVANSVILLE SUNNY 71 68 90 VRB6 30.04R  
HUNTINGBURG + SUNNY 69 65 86 CALM 30.05R  
WASHINGTON + MOSUNNY 67 62 85 CALM 30.03S  
 

 
 
INZ062-063-066-070>080-084-089>092-251400-  
SOUTH CENTRAL AND SOUTHEAST INDIANA  
 
CITY SKY/WX TMP DP RH WIND PRES REMARKS
 
BEDFORD + SUNNY 64 61 88 CALM 30.05S  
BLOOMINGTON MOSUNNY 67 59 75 CALM 30.05S  
MADISON *+ SUNNY 68 63 83 CALM 30.08S  
NORTH VERNON + SUNNY 63 59 88 CALM 30.07R  
SEYMOUR + SUNNY 70 61 73 CALM 30.06R  
 

 
 
 
 
CLICK HERE TO GO TO PREVIOUS BULLETINS.

The Nexlab IN Page Main Text Page